Regional Weather Roundup
Issued by NWS Green Bay, WI

Home | Current Version | Previous Version | Graphics & Text | Print | Product List | Glossary Off
Versions: 1 2 3 4 5 6 7 8 9 10 11 12 13 14 15 16 17 18 19 20 21 22 23 24 25 26 27 28 29 30 31 32 33 34 35 36 37 38 39 40 41 42 43 44 45 46 47 48 49 50

000
ASUS43 KGRB 252311
RWRGRB

NORTH-CENTRAL AND NORTHEAST WISCONSIN REGIONAL WEATHER ROUNDUP
NATIONAL WEATHER SERVICE GREEN BAY WI
600 PM CDT THU MAY 25 2017

WIZ005-009-010>012-018-019-260000-
NORTH CENTRAL WISCONSIN

CITY           SKY/WX    TMP DP  RH WIND       PRES   REMARKS
IRONWOOD       SUNNY     70  48  45 NE8       29.68S
MANITOWISH WTR MOSUNNY   71  45  39 SE6       29.68R
ARBOR VITAE    MOSUNNY   72  46  40 E6        29.67S
EAGLE RIVER    PTSUNNY   71  43  36 E7        29.68S
LAND O LAKES   MOSUNNY   71  42  35 SE7       29.70S
RHINELANDER    MOSUNNY   72  46  39 E7        29.68S
PHILLIPS       CLOUDY    70  48  46 CALM      29.67R
ANTIGO         SUNNY     68  49  51 SE5       29.69R
TOMAHAWK       MOSUNNY   71  47  41 CALM      29.68R
MERRILL        CLOUDY    71  50  47 S7        29.67S
$$

WIZ013-073-260000-
NORTHEAST WISCONSIN

CITY           SKY/WX    TMP DP  RH WIND       PRES   REMARKS
IRON MOUNTAIN  MOSUNNY   71  42  35 NE8G17    29.66F
MARINETTE      CLOUDY    65  51  60 CALM      29.68S
OCONTO         CLOUDY    66  50  57 E5        29.66S
$$

WIZ017-030-035>037-045-260000-
CENTRAL WISCONSIN

CITY           SKY/WX    TMP DP  RH WIND       PRES   REMARKS
MEDFORD        MOSUNNY   69  50  50 S6        29.67S
WAUSAU         CLOUDY    69  49  48 SE7       29.65R
MOSINEE        MOSUNNY   70  50  49 SE3       29.68R
MARSHFIELD     SUNNY     71  49  45 SE8       29.66R
WISC RAPIDS    SUNNY     73  48  41 S5        29.68R
STEVENS POINT  MOSUNNY   67  49  51 CALM      29.67S
WAUPACA        MOSUNNY   73  49  41 E5        29.68R
SHAWANO        CLOUDY    72  54  52 SE9       29.67S
CLINTONVILLE   PTSUNNY   68  50  52 SE8       29.66S
WAUTOMA        MOSUNNY   71  51  49 E5        29.67S
$$

WIZ038-039-048-051-260000-
FOX VALLEY

CITY           SKY/WX    TMP DP  RH WIND       PRES   REMARKS
NWS GREEN BAY  SUNNY     69  53  56 NE12      29.67S
APPLETON       MOSUNNY   68  43  40 NE13G20   29.66R
OSHKOSH        SUNNY     68  50  52 N13       29.67S
FOND DU LAC    SUNNY     69  50  50 N10       29.67S
$$

WIZ022-050-052-260000-
EAST CENTRAL WISCONSIN

CITY           SKY/WX    TMP DP  RH WIND       PRES   REMARKS
EPHRAIM        MOCLDY    64  53  67 E9        29.66S
WASHINGTON ISL CLOUDY    57  51  81 E6G16     29.69R
STURGEON BAY   SUNNY     65  51  60 NE10      29.68R
MANITOWOC      SUNNY     62  51  67 NE9       29.68R
SHEBOYGAN      SUNNY     62  54  74 NE16      29.68R
$$

LMZ563-521-522-541>543-260000-
LAKESHORE

STATION/POSITION TIME  TEMP    WIND        PRES    VSBY  WAVE
                       AIR SEA DIR/SP/G                  HT/PER
                 (UTC) (F)     (DEG/KT/KT) (MB)    (MI)  (FT/S)
SHEBOYGAN LKSHOR 2300   53      10/ 12/ 13 1004.9R
KEWAUNEE LKSHORE 2236   55      30/  4/  7 1004.8S
NORTHPORT PIER   2240   57      90/  7/  9 1005.1R
N MID LAKE BUOY  2250   46 41   60/ 10/ 10 1005.8R         0
CHAMBERS ISLAND  2240   60      CALM  /  1 1004.4S
MENOMINEE LKSHOR 2236          320/  4/  5 1004.0R
$$




USA.gov is the U.S. government's official web portal to all federal, state and local government web resources and services.